• în România
  • Lista ţărilor
  • Pe 7 zile
  • Temperatura apei
  • Hartă satelitară
  • Meteo pe hartă
  • Widget-uri
  • user-avatar
    Intrare

    Meteo pe oră la Saurimo

    Astăzi, 24 Iulie, Luni

    Timp Temperatura Precipitaţii Vânt Presiune Umiditate
    00:00 +22°C° 0 mm 1 m/s 671 mmHg 25%
    01:00 +21°C° 0 mm 1 m/s 671 mmHg 27%
    02:00 +20°C° 0 mm 1 m/s 671 mmHg 28%
    03:00 +19°C° 0 mm 1 m/s 671 mmHg 29%
    04:00 +19°C° 0 mm 1 m/s 671 mmHg 29%
    05:00 +19°C° 0 mm 1 m/s 671 mmHg 29%
    06:00 +19°C° 0 mm 1 m/s 672 mmHg 28%
    07:00 +20°C° 0 mm 1 m/s 672 mmHg 27%
    08:00 +23°C° 0 mm 1 m/s 673 mmHg 23%
    09:00 +27°C° 0 mm 2 m/s 674 mmHg 19%
    10:00 +30°C° 0 mm 3 m/s 675 mmHg 15%
    11:00 +33°C° 0 mm 3 m/s 674 mmHg 14%
    12:00 +35°C° 0 mm 2 m/s 674 mmHg 12%
    13:00 +36°C° 0 mm 2 m/s 673 mmHg 11%
    14:00 +36°C° 0 mm 2 m/s 673 mmHg 11%
    15:00 +36°C° 0 mm 2 m/s 672 mmHg 11%
    16:00 +36°C° 0 mm 2 m/s 672 mmHg 11%
    17:00 +32°C° 0 mm 1 m/s 671 mmHg 13%
    18:00 +29°C° 0 mm 1 m/s 671 mmHg 16%
    19:00 +26°C° 0 mm 1 m/s 671 mmHg 18%
    20:00 +25°C° 0 mm 1 m/s 671 mmHg 19%
    21:00 +24°C° 0 mm 2 m/s 671 mmHg 20%
    22:00 +23°C° 0 mm 2 m/s 671 mmHg 21%
    23:00 +21°C° 0 mm 2 m/s 671 mmHg 21%

    Mâine, 25 Iulie, Marţi

    Timp Temperatura Precipitaţii Vânt Presiune Umiditate
    00:00 +20°C° 0 mm 2 m/s 671 mmHg 22%
    01:00 +20°C° 0 mm 2 m/s 671 mmHg 22%
    02:00 +19°C° 0 mm 2 m/s 671 mmHg 23%
    03:00 +18°C° 0 mm 2 m/s 671 mmHg 24%
    04:00 +18°C° 0 mm 2 m/s 671 mmHg 25%
    05:00 +18°C° 0 mm 2 m/s 671 mmHg 24%
    06:00 +19°C° 0 mm 2 m/s 672 mmHg 23%
    07:00 +20°C° 0 mm 2 m/s 672 mmHg 22%
    08:00 +24°C° 0 mm 3 m/s 673 mmHg 19%
    09:00 +28°C° 0 mm 3 m/s 674 mmHg 15%
    10:00 +31°C° 0 mm 3 m/s 674 mmHg 12%
    11:00 +34°C° 0 mm 3 m/s 674 mmHg 11%
    12:00 +36°C° 0 mm 2 m/s 673 mmHg 9%
    13:00 +38°C° 0 mm 2 m/s 673 mmHg 8%
    14:00 +38°C° 0 mm 2 m/s 672 mmHg 8%
    15:00 +37°C° 0 mm 2 m/s 672 mmHg 8%
    16:00 +36°C° 0 mm 2 m/s 671 mmHg 8%
    17:00 +32°C° 0 mm 2 m/s 671 mmHg 10%
    18:00 +29°C° 0 mm 2 m/s 671 mmHg 13%
    19:00 +26°C° 0 mm 2 m/s 671 mmHg 15%
    20:00 +25°C° 0 mm 2 m/s 671 mmHg 16%
    21:00 +24°C° 0 mm 2 m/s 671 mmHg 17%
    22:00 +24°C° 0 mm 2 m/s 672 mmHg 18%
    23:00 +23°C° 0 mm 2 m/s 671 mmHg 19%

    Poimâine, 26 Iulie, Miercuri

    Timp Temperatura Precipitaţii Vânt Presiune Umiditate
    00:00 +21°C° 0 mm 2 m/s 671 mmHg 20%
    01:00 +21°C° 0 mm 1 m/s 671 mmHg 21%
    02:00 +19°C° 0 mm 2 m/s 670 mmHg 22%
    03:00 +19°C° 0 mm 2 m/s 670 mmHg 23%
    04:00 +18°C° 0 mm 2 m/s 670 mmHg 24%
    05:00 +19°C° 0 mm 2 m/s 670 mmHg 24%
    06:00 +19°C° 0 mm 3 m/s 671 mmHg 23%
    07:00 +20°C° 0 mm 3 m/s 671 mmHg 23%
    08:00 +25°C° 0 mm 3 m/s 672 mmHg 20%
    09:00 +28°C° 0 mm 4 m/s 673 mmHg 17%
    10:00 +33°C° 0 mm 4 m/s 674 mmHg 14%
    11:00 +34°C° 0 mm 3 m/s 673 mmHg 12%
    12:00 +36°C° 0 mm 3 m/s 673 mmHg 11%
    13:00 +38°C° 0 mm 2 m/s 672 mmHg 10%
    14:00 +37°C° 0 mm 2 m/s 672 mmHg 10%
    15:00 +37°C° 0 mm 2 m/s 671 mmHg 10%
    16:00 +35°C° 0 mm 1 m/s 670 mmHg 10%
    17:00 +32°C° 0 mm 1 m/s 670 mmHg 12%
    18:00 +29°C° 0 mm 1 m/s 670 mmHg 15%
    19:00 +26°C° 0 mm 1 m/s 670 mmHg 17%
    20:00 +25°C° 0 mm 1 m/s 671 mmHg 19%
    21:00 +24°C° 0 mm 1 m/s 671 mmHg 20%
    22:00 +23°C° 0 mm 1 m/s 671 mmHg 21%
    23:00 +23°C° 0 mm 2 m/s 671 mmHg 23%

    27 Iulie, Joi

    Timp Temperatura Precipitaţii Vânt Presiune Umiditate
    00:00 +21°C° 0 mm 2 m/s 670 mmHg 24%
    01:00 +20°C° 0 mm 2 m/s 670 mmHg 25%
    02:00 +20°C° 0 mm 2 m/s 670 mmHg 25%
    03:00 +19°C° 0 mm 2 m/s 670 mmHg 26%
    04:00 +19°C° 0 mm 2 m/s 670 mmHg 27%
    05:00 +19°C° 0 mm 2 m/s 670 mmHg 26%
    06:00 +20°C° 0 mm 2 m/s 671 mmHg 26%
    07:00 +20°C° 0 mm 2 m/s 672 mmHg 25%
    08:00 +25°C° 0 mm 3 m/s 672 mmHg 22%
    09:00 +28°C° 0 mm 4 m/s 673 mmHg 19%
    10:00 +33°C° 0 mm 4 m/s 674 mmHg 15%
    11:00 +34°C° 0 mm 4 m/s 673 mmHg 14%
    12:00 +35°C° 0 mm 3 m/s 673 mmHg 13%
    13:00 +37°C° 0 mm 3 m/s 672 mmHg 12%
    14:00 +37°C° 0 mm 3 m/s 671 mmHg 12%
    15:00 +36°C° 0 mm 2 m/s 671 mmHg 12%
    16:00 +36°C° 0 mm 2 m/s 670 mmHg 12%
    17:00 +32°C° 0 mm 2 m/s 671 mmHg 15%
    18:00 +30°C° 0 mm 2 m/s 671 mmHg 18%
    19:00 +27°C° 0 mm 1 m/s 671 mmHg 21%
    20:00 +26°C° 0 mm 1 m/s 671 mmHg 22%
    21:00 +25°C° 0 mm 1 m/s 671 mmHg 23%
    22:00 +24°C° 0 mm 2 m/s 671 mmHg 25%
    23:00 +23°C° 0 mm 2 m/s 671 mmHg 25%

    28 Iulie, Vineri

    Timp Temperatura Precipitaţii Vânt Presiune Umiditate
    00:00 +21°C° 0 mm 2 m/s 671 mmHg 25%
    01:00 +21°C° 0 mm 2 m/s 670 mmHg 26%
    02:00 +20°C° 0 mm 2 m/s 670 mmHg 26%
    03:00 +20°C° 0 mm 2 m/s 670 mmHg 26%
    04:00 +19°C° 0 mm 2 m/s 670 mmHg 26%
    05:00 +20°C° 0 mm 2 m/s 671 mmHg 26%
    06:00 +20°C° 0 mm 2 m/s 672 mmHg 26%
    07:00 +20°C° 0 mm 2 m/s 672 mmHg 26%
    08:00 +24°C° 0 mm 3 m/s 673 mmHg 23%
    09:00 +28°C° 0 mm 3 m/s 674 mmHg 20%
    10:00 +32°C° 0 mm 4 m/s 674 mmHg 17%
    11:00 +33°C° 0 mm 3 m/s 674 mmHg 16%
    12:00 +35°C° 0 mm 3 m/s 673 mmHg 14%
    13:00 +36°C° 0 mm 3 m/s 672 mmHg 13%
    14:00 +36°C° 0 mm 3 m/s 672 mmHg 13%
    15:00 +36°C° 0 mm 2 m/s 672 mmHg 13%
    16:00 +36°C° 0 mm 2 m/s 671 mmHg 13%
    17:00 +32°C° 0 mm 2 m/s 671 mmHg 15%
    18:00 +29°C° 0 mm 2 m/s 671 mmHg 18%
    19:00 +27°C° 0 mm 2 m/s 671 mmHg 21%
    20:00 +26°C° 0 mm 2 m/s 672 mmHg 22%
    21:00 +25°C° 0 mm 2 m/s 672 mmHg 22%
    22:00 +24°C° 0 mm 3 m/s 672 mmHg 23%
    23:00 +24°C° 0 mm 3 m/s 672 mmHg 23%

    29 Iulie, Sâmbătă

    Timp Temperatura Precipitaţii Vânt Presiune Umiditate
    00:00 +22°C° 0 mm 3 m/s 671 mmHg 23%
    01:00 +22°C° 0 mm 3 m/s 671 mmHg 22%
    02:00 +21°C° 0 mm 3 m/s 671 mmHg 22%
    03:00 +21°C° 0 mm 3 m/s 671 mmHg 22%
    04:00 +20°C° 0 mm 3 m/s 671 mmHg 23%
    05:00 +20°C° 0 mm 3 m/s 672 mmHg 23%
    06:00 +20°C° 0 mm 4 m/s 672 mmHg 23%
    07:00 +20°C° 0 mm 4 m/s 673 mmHg 24%
    08:00 +23°C° 0 mm 4 m/s 673 mmHg 21%
    09:00 +27°C° 0 mm 4 m/s 674 mmHg 19%
    10:00 +30°C° 0 mm 4 m/s 675 mmHg 17%
    11:00 +31°C° 0 mm 3 m/s 674 mmHg 15%
    12:00 +34°C° 0 mm 3 m/s 673 mmHg 14%
    13:00 +36°C° 0 mm 2 m/s 673 mmHg 12%
    14:00 +36°C° 0 mm 2 m/s 672 mmHg 12%
    15:00 +35°C° 0 mm 2 m/s 672 mmHg 13%
    16:00 +35°C° 0 mm 2 m/s 671 mmHg 13%
    17:00 +32°C° 0 mm 2 m/s 671 mmHg 15%
    18:00 +29°C° 0 mm 2 m/s 671 mmHg 18%
    19:00 +26°C° 0 mm 2 m/s 671 mmHg 21%
    20:00 +25°C° 0 mm 2 m/s 672 mmHg 22%
    21:00 +25°C° 0 mm 2 m/s 672 mmHg 22%
    22:00 +24°C° 0 mm 3 m/s 672 mmHg 23%
    23:00 +23°C° 0 mm 2 m/s 672 mmHg 24%
    Arată mai mult